Location: La Fredeussais
(48.1780°N, 1.3980°W)
Time: 04:11:50
(UTC+00:00)

Cosmos 2221 - Pass Details

Date: 09 May 2021
Orbit: 593 x 615 km, 82.5° (Epoch: 13 June)

Event Time Altitude Azimuth Distance (km) Brightness Sun altitude
Rises 20:17:27 0° 207° (SSW) 2,838 5.9 -7.4°
Reaches altitude 10° 20:19:45 10° 215° (SW) 1,944 5.1 -7.7°
Maximum altitude 20:23:49 40° 285° (WNW) 903 4.1 -8.2°
Drops below altitude 10° 20:27:56 10° 356° (N) 1,973 5.8 -8.8°
Sets 20:30:17 0° 4° (N) 2,886 6.5 -9.1°
